Location: Winthrop
(48.4780°N, 120.1850°W)
Time: 04:21:40
(UTC-07:00)

Vanguard 1 Rocket - Pass Details

Date: 06 December 2023
Orbit: 651 x 4217 km, 34.3° (Epoch: 01 November)

Event Time Altitude Azimuth Distance (km) Brightness Sun altitude
Rises 02:20:49 0° 202° (SSW) 8,448 - -50.7°
Reaches altitude 10° 02:28:37 10° 192° (SSW) 7,368 - -49.5°
Exits shadow 02:31:56 14° 186° (S) 6,916 11.6 -49.0°
Maximum altitude 02:45:55 25° 147° (SSE) 5,368 11.2 -46.9°
Drops below altitude 10° 02:58:40 10° 101° (E) 5,427 11.8 -44.9°
Sets 03:03:04 0° 89° (E) 5,934 12.3 -44.2°
